Location: New Canada
(47.1017°N, 68.5042°W)
Time: 21:38:24
(UTC+00:00)

RS-44 - Pass Details

Date: 04 April 2023
Orbit: 1175 x 1510 km, 82.5° (Epoch: 02 June)

Event Time Altitude Azimuth Distance (km) Brightness Sun altitude
Rises 03:01:45 0° 357° (N) 4,392 ? -33.3°
Reaches altitude 10° 03:06:16 10° 20° (NNE) 3,485 ? -33.6°
Maximum altitude 03:10:44 15° 53° (NE) 3,158 ? -34.0°
Enters shadow 03:13:49 13° 76° (ENE) 3,375 ? -34.2°
